Flag for Belgium Weather past 2 weeks in Charleroi, Belgium

Now
54 °F

Fog.


Feels Like: 52 °F
Forecast: 56 / 74 °F
Wind: 7 mph from Northeast

Location: Charleroi / Gosselies

Current Time: Sep 3, 2014 at 7:51:38 AM

Latest Report: Sep 3, 2014 at 7:20 AM


Visibility: 0 mi

Pressure: 30.21 "Hg

Humidity: 100%

Dew point: 54 °F

Location of CharleroiLocation

Historic Weather in Charleroi — Graph

°F

Charleroi temperature yesterday

Maximum temperature yesterday: 70 °F (at 3:20 PM)
Minimum temperature yesterday: 57 °F (at 3:50 AM)
Average temperature yesterday: 62 °F

Past Weeks' High & Low Weather Summary

 TemperatureHumidityPressure
High70 °F (Aug 28, 3:50 PM)100% (Aug 26, 10:50 AM)30.21 "Hg (Aug 26, 10:50 AM)
Low46 °F (Aug 20, 4:20 AM)45% (Aug 20, 1:50 PM)29.62 "Hg (Aug 26, 1:20 AM)
Average58 °F81%30.00 "Hg
* Reported Aug 19 6:20 AM — Sep 3 6:20 AM, Charleroi, Weather by CustomWeather, © 2014

Note: Actual official high and low records may vary slightly from our data, if they occured in-between our weather recording intervals... More about our weather records

Advertising

Charleroi weather history for previous 24 hours

 ConditionsComfort  
Time TempWeatherWind HumidityBarometerVisibility
6:20 AM
Sep 3
55 °FFog.5 mph94%30.18 "Hg0 mi
5:50 AM55 °FFog.5 mph94%30.18 "Hg1 mi
5:20 AM54 °FFog.3 mph94%30.18 "Hg1 mi
4:50 AM55 °FFog.5 mph94%30.18 "Hg1 mi
4:20 AM55 °FFog.5 mph94%30.18 "Hg1 mi
3:50 AM55 °FFog.6 mph94%30.18 "Hg1 mi
3:20 AM55 °FFog.5 mph88%30.18 "Hg1 mi
2:50 AM55 °FFog.5 mph94%30.21 "Hg2 mi
2:20 AM55 °FFog.3 mph94%30.21 "Hg2 mi
1:50 AM55 °FFog.1 mph94%30.21 "Hg3 mi
1:20 AM55 °FClear.3 mph94%30.21 "Hg4 mi
12:50 AM55 °FClear.6 mph88%30.21 "Hg10 mi
12:20 AM57 °FClear.6 mph88%30.21 "Hg10 mi
11:50 PM
Sep 2
57 °FClear.6 mph88%30.21 "Hg10 mi
11:20 PM59 °FClear.6 mph82%30.21 "Hg10 mi
10:50 PM59 °FClear.6 mph82%30.21 "Hg10 mi
10:20 PM61 °FClear.6 mph77%30.21 "Hg10 mi
9:50 PM61 °FClear.7 mph77%30.21 "Hg10 mi
9:20 PM61 °FSunny.7 mph77%30.21 "Hg10 mi
8:50 PM61 °FSunny.7 mph77%30.21 "Hg10 mi
8:20 PM63 °FPassing clouds.7 mph73%30.18 "HgN/A
7:50 PM64 °FPassing clouds.6 mph68%30.18 "HgN/A
7:20 PM66 °FPassing clouds.6 mph64%30.18 "HgN/A
6:50 PM66 °FPassing clouds.7 mph64%30.18 "HgN/A
6:20 PM68 °FPassing clouds.10 mph60%30.18 "HgN/A
5:50 PM68 °FPassing clouds.8 mph60%30.18 "HgN/A
5:20 PM70 °FPassing clouds.6 mph57%30.18 "HgN/A
4:50 PM68 °FPassing clouds.9 mph60%30.18 "HgN/A
4:20 PM68 °FPassing clouds.9 mph60%30.18 "HgN/A
3:50 PM70 °FPassing clouds.6 mph57%30.18 "HgN/A
3:20 PM70 °FPassing clouds.3 mph57%30.18 "HgN/A
2:50 PM66 °FPassing clouds.3 mph64%30.18 "HgN/A
2:20 PM68 °FPassing clouds.2 mph60%30.18 "HgN/A
1:50 PM66 °FScattered clouds.3 mph68%30.21 "Hg4 mi
1:20 PM66 °FPartly sunny.2 mph73%30.21 "Hg4 mi
12:50 PM64 °FPartly sunny.3 mph78%30.21 "Hg3 mi
12:20 PM63 °FFog.3 mph83%30.21 "Hg2 mi
11:50 AM63 °FFog.1 mph83%30.21 "Hg2 mi
11:20 AM61 °FFog.3 mph88%30.21 "Hg2 mi
10:50 AM61 °FFog.2 mph83%30.21 "Hg2 mi
10:20 AM61 °FFog.3 mph83%30.18 "Hg2 mi
9:50 AM59 °FFog.2 mph88%30.18 "Hg2 mi
9:20 AM59 °FFog.3 mph88%30.18 "Hg1 mi
8:50 AM59 °FFog.2 mph88%30.18 "Hg1 mi
7:50 AM57 °FFog.1 mph94%30.18 "Hg1 mi
7:20 AM57 °FFog.5 mph94%30.15 "Hg1 mi
Weather by CustomWeather, © 2014

See weather overviewHow to use our weather pages